Time,TemperatureF,DewpointF,PressureIn,WindDirection,WindDirectionDegrees,WindSpeedMPH,WindSpeedGustMPH,Humidity,HourlyPrecipIn,Conditions,Clouds,dailyrainin,SoftwareType,DateUTC
2013-02-16 00:00:00,36.7,33.8,29.95,WNW,296,1.0,1.0,89,0.00,,,0.00,Wunderground v.1.15,2013-02-16 05:00:00,
2013-02-16 00:03:00,36.7,34.0,29.95,WNW,297,1.0,5.0,89,0.00,,,0.00,weatherlink.com 1.10,2013-02-16 05:03:00,
2013-02-16 00:10:00,36.5,33.8,29.95,WNW,297,0.0,0.0,90,0.00,,,0.00,Wunderground v.1.15,2013-02-16 05:10:00,
2013-02-16 00:17:00,36.3,34.0,29.95,WNW,297,0.0,3.0,90,0.00,,,0.00,weatherlink.com 1.10,2013-02-16 05:17:00,
2013-02-16 00:20:00,36.2,33.5,29.95,WNW,300,0.0,2.0,90,0.00,,,0.01,Wunderground v.1.15,2013-02-16 05:20:00,
2013-02-16 00:30:00,35.9,33.5,29.95,NNW,327,1.0,1.0,91,0.00,,,0.01,Wunderground v.1.15,2013-02-16 05:30:00,
2013-02-16 00:40:00,35.6,33.5,29.95,NW,325,0.0,0.0,92,0.04,,,0.02,Wunderground v.1.15,2013-02-16 05:40:00,
2013-02-16 00:47:00,35.5,33.0,29.95,NNW,329,1.0,4.0,92,0.02,,,0.02,weatherlink.com 1.10,2013-02-16 05:47:00,
2013-02-16 01:00:00,35.2,33.1,29.94,NNW,330,0.0,1.0,92,0.04,,,0.03,Wunderground v.1.15,2013-02-16 06:00:00,
2013-02-16 01:10:00,35.1,33.3,29.94,NNW,330,0.0,0.0,93,0.05,,,0.04,Wunderground v.1.15,2013-02-16 06:10:00,
2013-02-16 01:17:00,35.1,33.0,29.95,NNW,329,0.0,2.0,93,0.03,,,0.04,weatherlink.com 1.10,2013-02-16 06:17:00,
2013-02-16 01:30:00,35.0,33.2,29.95,NNW,329,0.0,0.0,93,0.00,,,0.04,Wunderground v.1.15,2013-02-16 06:30:00,
2013-02-16 01:40:00,35.0,33.4,29.94,NNW,329,1.0,1.0,94,0.00,,,0.04,Wunderground v.1.15,2013-02-16 06:40:00,
2013-02-16 01:48:00,35.1,34.0,29.94,NNW,329,0.0,2.0,94,0.01,,,0.04,weatherlink.com 1.10,2013-02-16 06:48:00,
2013-02-16 02:00:00,35.1,33.5,29.94,NNE,20,0.0,2.0,94,0.00,,,0.05,Wunderground v.1.15,2013-02-16 07:00:00,
2013-02-16 02:10:00,35.0,33.4,29.93,NE,39,2.0,2.0,94,0.00,,,0.05,Wunderground v.1.15,2013-02-16 07:10:00,
2013-02-16 02:18:00,34.8,33.0,29.93,NE,38,2.0,4.0,94,0.01,,,0.05,weatherlink.com 1.10,2013-02-16 07:18:00,
2013-02-16 02:30:00,34.6,33.1,29.93,NNE,17,1.0,3.0,94,0.00,,,0.05,Wunderground v.1.15,2013-02-16 07:30:00,
2013-02-16 02:40:00,34.4,32.9,29.93,NNE,31,2.0,2.0,94,0.00,,,0.05,Wunderground v.1.15,2013-02-16 07:40:00,
2013-02-16 02:48:00,34.3,33.0,29.93,NE,36,2.0,5.0,93,0.01,,,0.05,weatherlink.com 1.10,2013-02-16 07:48:00,
2013-02-16 03:00:00,34.1,32.6,29.92,NE,49,2.0,2.0,94,0.00,,,0.05,Wunderground v.1.15,2013-02-16 08:00:00,
2013-02-16 03:10:00,33.9,32.4,29.92,NE,50,3.0,5.0,94,0.00,,,0.06,Wunderground v.1.15,2013-02-16 08:10:00,
2013-02-16 03:18:00,33.7,32.0,29.92,NNE,28,2.0,6.0,93,0.01,,,0.06,weatherlink.com 1.10,2013-02-16 08:18:00,
2013-02-16 03:30:00,33.5,31.7,29.92,NE,42,2.0,2.0,93,0.00,,,0.06,Wunderground v.1.15,2013-02-16 08:30:00,
2013-02-16 03:40:00,33.4,31.6,29.91,NE,36,2.0,2.0,93,0.00,,,0.06,Wunderground v.1.15,2013-02-16 08:40:00,
2013-02-16 03:48:00,33.3,32.0,29.91,NE,38,2.0,8.0,93,0.01,,,0.06,weatherlink.com 1.10,2013-02-16 08:48:00,
2013-02-16 04:00:00,33.2,31.4,29.91,NE,44,4.0,4.0,93,0.00,,,0.06,Wunderground v.1.15,2013-02-16 09:00:00,
2013-02-16 04:10:00,33.0,31.2,29.90,NNE,27,3.0,6.0,93,0.00,,,0.06,Wunderground v.1.15,2013-02-16 09:10:00,
2013-02-16 04:18:00,32.9,31.0,29.91,NE,40,4.0,9.0,92,0.00,,,0.06,weatherlink.com 1.10,2013-02-16 09:18:00,
2013-02-16 04:30:00,32.9,30.8,29.91,ENE,66,3.0,3.0,92,0.00,,,0.06,Wunderground v.1.15,2013-02-16 09:30:00,
2013-02-16 04:40:00,32.8,31.0,29.92,NE,36,3.0,3.0,93,0.00,,,0.06,Wunderground v.1.15,2013-02-16 09:40:00,
2013-02-16 04:48:00,32.8,31.0,29.91,NE,40,3.0,7.0,93,0.00,,,0.06,weatherlink.com 1.10,2013-02-16 09:48:00,
2013-02-16 05:00:00,32.7,30.6,29.92,NNE,33,3.0,4.0,92,0.00,,,0.06,Wunderground v.1.15,2013-02-16 10:00:00,
2013-02-16 05:10:00,32.7,30.6,29.92,NNE,32,2.0,2.0,92,0.00,,,0.06,Wunderground v.1.15,2013-02-16 10:10:00,
2013-02-16 05:18:00,32.7,30.0,29.93,NE,41,2.0,5.0,91,0.00,,,0.06,weatherlink.com 1.10,2013-02-16 10:18:00,
2013-02-16 05:30:00,32.7,30.6,29.93,NE,39,1.0,1.0,92,0.00,,,0.06,Wunderground v.1.15,2013-02-16 10:30:00,
2013-02-16 05:40:00,32.6,30.8,29.93,NE,37,0.0,0.0,93,0.00,,,0.06,Wunderground v.1.15,2013-02-16 10:40:00,
2013-02-16 05:48:00,32.5,31.0,29.93,NE,37,1.0,3.0,93,0.00,,,0.06,weatherlink.com 1.10,2013-02-16 10:48:00,
2013-02-16 06:00:00,32.3,30.5,29.93,NE,36,0.0,0.0,93,0.00,,,0.06,Wunderground v.1.15,2013-02-16 11:00:00,
2013-02-16 06:10:00,32.1,30.6,29.93,NE,36,0.0,1.0,94,0.00,,,0.06,Wunderground v.1.15,2013-02-16 11:10:00,
2013-02-16 06:18:00,31.9,30.0,29.93,NE,37,1.0,3.0,94,0.00,,,0.06,weatherlink.com 1.10,2013-02-16 11:18:00,
2013-02-16 06:30:00,31.6,30.1,29.93,NE,42,1.0,1.0,94,0.00,,,0.06,Wunderground v.1.15,2013-02-16 11:30:00,
2013-02-16 06:40:00,31.5,30.0,29.93,NE,42,0.0,0.0,94,0.00,,,0.06,Wunderground v.1.15,2013-02-16 11:40:00,
2013-02-16 06:48:00,31.5,30.0,29.93,NNE,20,0.0,4.0,94,0.00,,,0.06,weatherlink.com 1.10,2013-02-16 11:48:00,
2013-02-16 07:00:00,31.5,30.0,29.92,NNE,25,1.0,2.0,94,0.00,,,0.06,Wunderground v.1.15,2013-02-16 12:00:00,
2013-02-16 07:10:00,31.6,29.8,29.92,NE,37,3.0,5.0,93,0.00,,,0.06,Wunderground v.1.15,2013-02-16 12:10:00,
2013-02-16 07:18:00,31.6,30.0,29.92,NNE,28,0.0,5.0,93,0.00,,,0.06,weatherlink.com 1.10,2013-02-16 12:18:00,
2013-02-16 07:30:00,31.7,29.6,29.93,NNE,32,1.0,1.0,92,0.00,,,0.06,Wunderground v.1.15,2013-02-16 12:30:00,
2013-02-16 07:40:00,31.8,29.5,29.94,North,349,2.0,3.0,91,0.00,,,0.06,Wunderground v.1.15,2013-02-16 12:40:00,
2013-02-16 07:49:00,31.8,30.0,29.93,NNE,21,4.0,6.0,91,0.00,,,0.06,weatherlink.com 1.10,2013-02-16 12:49:00,
2013-02-16 08:00:00,31.9,29.0,29.94,NNE,22,3.0,3.0,89,0.00,,,0.06,Wunderground v.1.15,2013-02-16 13:00:00,
2013-02-16 08:10:00,31.9,28.8,29.93,NE,45,1.0,1.0,88,0.00,,,0.06,Wunderground v.1.15,2013-02-16 13:10:00,
2013-02-16 08:19:00,31.8,29.0,29.93,North,5,0.0,3.0,88,0.00,,,0.06,weatherlink.com 1.10,2013-02-16 13:19:00,
2013-02-16 08:30:00,31.9,28.5,29.94,NNE,19,1.0,3.0,87,0.00,,,0.06,Wunderground v.1.15,2013-02-16 13:30:00,
2013-02-16 08:40:00,31.9,28.2,29.93,NE,36,4.0,7.0,86,0.00,,,0.06,Wunderground v.1.15,2013-02-16 13:40:00,
2013-02-16 08:49:00,31.9,28.0,29.93,NE,35,0.0,7.0,86,0.00,,,0.06,weatherlink.com 1.10,2013-02-16 13:49:00,
2013-02-16 09:00:00,32.3,28.6,29.94,North,5,2.0,3.0,86,0.00,,,0.06,Wunderground v.1.15,2013-02-16 14:00:00,
2013-02-16 09:10:00,32.3,28.3,29.93,NNE,22,3.0,3.0,85,0.00,,,0.06,Wunderground v.1.15,2013-02-16 14:10:00,
2013-02-16 09:19:00,32.5,28.0,29.94,North,9,2.0,7.0,84,0.00,,,0.06,weatherlink.com 1.10,2013-02-16 14:19:00,
2013-02-16 09:30:00,32.8,28.5,29.93,NE,40,3.0,3.0,84,0.00,,,0.06,Wunderground v.1.15,2013-02-16 14:30:00,
2013-02-16 09:40:00,32.9,28.0,29.93,NNE,22,4.0,7.0,82,0.00,,,0.06,Wunderground v.1.15,2013-02-16 14:40:00,
2013-02-16 09:49:00,33.1,28.0,29.93,North,9,4.0,7.0,82,0.00,,,0.06,weatherlink.com 1.10,2013-02-16 14:49:00,
2013-02-16 10:00:00,33.0,27.5,29.92,NNE,24,5.0,5.0,80,0.00,,,0.06,Wunderground v.1.15,2013-02-16 15:00:00,
2013-02-16 10:10:00,32.8,27.6,29.92,NE,34,4.0,4.0,81,0.00,,,0.06,Wunderground v.1.15,2013-02-16 15:10:00,
2013-02-16 10:20:00,33.1,28.0,29.92,North,360,4.0,9.0,80,0.00,,,0.06,weatherlink.com 1.10,2013-02-16 15:20:00,
2013-02-16 10:30:00,33.0,27.5,29.92,NE,36,4.0,6.0,80,0.00,,,0.06,Wunderground v.1.15,2013-02-16 15:30:00,
2013-02-16 10:40:00,32.9,27.4,29.93,NE,37,4.0,4.0,80,0.00,,,0.06,Wunderground v.1.15,2013-02-16 15:40:00,
2013-02-16 10:49:00,32.8,27.0,29.92,North,5,3.0,9.0,80,0.00,,,0.06,weatherlink.com 1.10,2013-02-16 15:49:00,
2013-02-16 11:00:00,32.9,26.8,29.92,NNE,23,4.0,4.0,78,0.00,,,0.06,Wunderground v.1.15,2013-02-16 16:00:00,
2013-02-16 11:10:00,33.1,26.7,29.91,North,9,4.0,5.0,77,0.00,,,0.06,Wunderground v.1.15,2013-02-16 16:10:00,
2013-02-16 11:20:00,33.0,26.6,29.91,NE,43,3.0,3.0,77,0.00,,,0.06,Wunderground v.1.15,2013-02-16 16:20:00,
2013-02-16 11:30:00,33.2,27.4,29.91,North,360,3.0,3.0,79,0.00,,,0.06,Wunderground v.1.15,2013-02-16 16:30:00,
2013-02-16 11:40:00,33.5,27.4,29.90,North,355,3.0,5.0,78,0.00,,,0.06,Wunderground v.1.15,2013-02-16 16:40:00,
2013-02-16 11:49:00,33.6,27.0,29.89,NNE,12,4.0,8.0,77,0.00,,,0.06,weatherlink.com 1.10,2013-02-16 16:49:00,
2013-02-16 12:00:00,33.8,27.4,29.89,NE,55,4.0,5.0,77,0.00,,,0.06,Wunderground v.1.15,2013-02-16 17:00:00,
2013-02-16 12:05:00,33.9,27.0,29.89,NE,44,3.0,9.0,76,0.00,,,0.06,weatherlink.com 1.10,2013-02-16 17:05:00,
2013-02-16 12:19:00,34.4,28.0,29.88,NE,45,7.0,8.0,76,0.00,,,0.06,weatherlink.com 1.10,2013-02-16 17:19:00,
2013-02-16 12:30:00,34.4,27.6,29.89,ENE,59,3.0,3.0,76,0.00,,,0.06,Wunderground v.1.15,2013-02-16 17:30:00,
2013-02-16 12:35:00,34.7,28.0,29.88,North,355,4.0,8.0,75,0.00,,,0.06,weatherlink.com 1.10,2013-02-16 17:35:00,
2013-02-16 12:50:00,35.2,27.0,29.87,North,5,3.0,9.0,71,0.00,,,0.06,weatherlink.com 1.10,2013-02-16 17:50:00,
2013-02-16 13:00:00,35.5,26.7,29.87,NNW,327,4.0,4.0,70,0.00,,,0.06,Wunderground v.1.15,2013-02-16 18:00:00,
2013-02-16 13:06:00,35.4,26.0,29.87,NNE,25,8.0,8.0,68,0.00,,,0.06,weatherlink.com 1.10,2013-02-16 18:06:00,
2013-02-16 13:20:00,35.2,26.0,29.87,NNE,12,3.0,6.0,69,0.00,,,0.06,Wunderground v.1.15,2013-02-16 18:20:00,
2013-02-16 13:30:00,34.9,26.1,29.87,NNE,13,3.0,3.0,70,0.00,,,0.06,Wunderground v.1.15,2013-02-16 18:30:00,
2013-02-16 13:36:00,34.9,26.0,29.86,NNE,17,3.0,7.0,69,0.00,,,0.06,weatherlink.com 1.10,2013-02-16 18:36:00,
2013-02-16 13:50:00,34.7,25.6,29.86,NNE,26,3.0,5.0,69,0.00,,,0.06,Wunderground v.1.15,2013-02-16 18:50:00,
2013-02-16 14:00:00,34.5,25.7,29.86,NNW,348,4.0,4.0,70,0.00,,,0.06,Wunderground v.1.15,2013-02-16 19:00:00,
2013-02-16 14:06:00,34.6,25.0,29.86,NE,40,5.0,9.0,68,0.00,,,0.06,weatherlink.com 1.10,2013-02-16 19:06:00,
2013-02-16 14:20:00,35.4,25.9,29.85,NNW,327,3.0,3.0,68,0.00,,,0.06,Wunderground v.1.15,2013-02-16 19:20:00,
2013-02-16 14:30:00,35.3,24.3,29.85,NNW,331,4.0,4.0,64,0.00,,,0.06,Wunderground v.1.15,2013-02-16 19:30:00,
2013-02-16 14:36:00,35.0,24.0,29.84,North,9,5.0,10.0,65,0.00,,,0.06,weatherlink.com 1.10,2013-02-16 19:36:00,
2013-02-16 14:50:00,35.3,25.1,29.83,NNW,345,4.0,4.0,66,0.00,,,0.06,Wunderground v.1.15,2013-02-16 19:50:00,
2013-02-16 15:00:00,35.3,24.3,29.84,North,355,2.0,2.0,64,0.00,,,0.06,Wunderground v.1.15,2013-02-16 20:00:00,
2013-02-16 15:07:00,35.3,25.0,29.83,ENE,59,3.0,7.0,65,0.00,,,0.06,weatherlink.com 1.10,2013-02-16 20:07:00,
2013-02-16 15:20:00,35.0,23.7,29.84,North,9,3.0,3.0,63,0.00,,,0.06,Wunderground v.1.15,2013-02-16 20:20:00,
2013-02-16 15:30:00,34.8,23.1,29.84,NNE,13,2.0,3.0,62,0.00,,,0.06,Wunderground v.1.15,2013-02-16 20:30:00,
2013-02-16 15:37:00,34.8,23.0,29.84,NNW,327,0.0,4.0,62,0.00,,,0.06,weatherlink.com 1.10,2013-02-16 20:37:00,
2013-02-16 15:50:00,34.7,22.6,29.85,NNE,21,3.0,3.0,61,0.00,,,0.06,Wunderground v.1.15,2013-02-16 20:50:00,
2013-02-16 16:00:00,34.6,23.3,29.85,North,360,1.0,5.0,63,0.00,,,0.06,Wunderground v.1.15,2013-02-16 21:00:00,
2013-02-16 16:07:00,34.4,23.0,29.85,NNE,23,0.0,6.0,64,0.00,,,0.06,weatherlink.com 1.10,2013-02-16 21:07:00,
2013-02-16 16:20:00,34.3,23.4,29.84,NNW,337,3.0,3.0,64,0.00,,,0.06,Wunderground v.1.15,2013-02-16 21:20:00,
2013-02-16 16:30:00,34.1,23.2,29.83,NNE,28,3.0,5.0,64,0.00,,,0.06,Wunderground v.1.15,2013-02-16 21:30:00,
2013-02-16 16:37:00,34.1,24.0,29.83,NNE,25,4.0,6.0,66,0.00,,,0.06,weatherlink.com 1.10,2013-02-16 21:37:00,
2013-02-16 16:50:00,34.0,23.8,29.83,NE,38,1.0,2.0,66,0.00,,,0.06,Wunderground v.1.15,2013-02-16 21:50:00,
2013-02-16 17:00:00,33.7,23.9,29.83,NE,42,3.0,5.0,67,0.00,,,0.06,Wunderground v.1.15,2013-02-16 22:00:00,
2013-02-16 17:07:00,33.4,23.0,29.83,NE,46,1.0,8.0,66,0.00,,,0.06,weatherlink.com 1.10,2013-02-16 22:07:00,
2013-02-16 17:20:00,33.1,23.0,29.83,NE,51,3.0,5.0,66,0.00,,,0.06,Wunderground v.1.15,2013-02-16 22:20:00,
2013-02-16 17:30:00,32.9,22.8,29.83,NNE,26,2.0,2.0,66,0.00,,,0.06,Wunderground v.1.15,2013-02-16 22:30:00,
2013-02-16 17:37:00,32.9,23.0,29.83,NNW,333,2.0,8.0,66,0.00,,,0.06,weatherlink.com 1.10,2013-02-16 22:37:00,
2013-02-16 17:50:00,32.7,22.2,29.83,NNE,26,3.0,4.0,65,0.00,,,0.06,Wunderground v.1.15,2013-02-16 22:50:00,
2013-02-16 18:00:00,32.6,21.8,29.83,NNE,15,4.0,4.0,64,0.00,,,0.06,Wunderground v.1.15,2013-02-16 23:00:00,
2013-02-16 18:07:00,32.5,22.0,29.83,NE,34,6.0,9.0,65,0.00,,,0.06,weatherlink.com 1.10,2013-02-16 23:07:00,
2013-02-16 18:20:00,32.4,21.9,29.83,NNE,19,4.0,5.0,65,0.00,,,0.06,Wunderground v.1.15,2013-02-16 23:20:00,
2013-02-16 18:30:00,32.2,21.4,29.83,North,355,4.0,6.0,64,0.00,,,0.06,Wunderground v.1.15,2013-02-16 23:30:00,
2013-02-16 18:38:00,32.0,21.0,29.82,North,355,4.0,11.0,65,0.00,,,0.06,weatherlink.com 1.10,2013-02-16 23:38:00,
2013-02-16 18:50:00,31.9,21.1,29.82,NNE,29,4.0,5.0,64,0.00,,,0.06,Wunderground v.1.15,2013-02-16 23:50:00,
2013-02-16 19:00:00,31.7,20.9,29.82,NNW,347,4.0,5.0,64,0.00,,,0.06,Wunderground v.1.15,2013-02-17 00:00:00,
2013-02-16 19:08:00,31.6,21.0,29.82,North,349,4.0,9.0,65,0.00,,,0.06,weatherlink.com 1.10,2013-02-17 00:08:00,
2013-02-16 19:20:00,31.5,21.1,29.82,NNE,25,3.0,3.0,65,0.00,,,0.06,Wunderground v.1.15,2013-02-17 00:20:00,
2013-02-16 19:30:00,31.3,20.5,29.81,NNE,18,4.0,4.0,64,0.00,,,0.06,Wunderground v.1.15,2013-02-17 00:30:00,
2013-02-16 19:38:00,31.2,21.0,29.81,NE,41,1.0,6.0,65,0.00,,,0.06,weatherlink.com 1.10,2013-02-17 00:38:00,
2013-02-16 19:50:00,31.0,20.2,29.81,NNE,22,3.0,3.0,64,0.00,,,0.06,Wunderground v.1.15,2013-02-17 00:50:00,
2013-02-16 20:00:00,30.8,20.0,29.81,NNE,33,3.0,7.0,64,0.00,,,0.06,Wunderground v.1.15,2013-02-17 01:00:00,
2013-02-16 20:08:00,30.7,20.0,29.81,NNE,30,3.0,8.0,64,0.00,,,0.06,weatherlink.com 1.10,2013-02-17 01:08:00,
2013-02-16 20:20:00,30.5,19.4,29.80,NNW,341,5.0,5.0,63,0.00,,,0.06,Wunderground v.1.15,2013-02-17 01:20:00,
2013-02-16 20:30:00,30.5,19.4,29.81,North,5,4.0,4.0,63,0.00,,,0.06,Wunderground v.1.15,2013-02-17 01:30:00,
2013-02-16 20:39:00,30.4,19.0,29.80,North,5,6.0,8.0,63,0.00,,,0.06,weatherlink.com 1.10,2013-02-17 01:39:00,
2013-02-16 20:50:00,30.3,19.2,29.81,NE,43,4.0,6.0,63,0.00,,,0.06,Wunderground v.1.15,2013-02-17 01:50:00,
2013-02-16 21:00:00,30.2,18.4,29.81,NNE,30,5.0,5.0,61,0.00,,,0.06,Wunderground v.1.15,2013-02-17 02:00:00,
2013-02-16 21:10:00,30.2,18.0,29.80,NNE,25,6.0,12.0,62,0.00,,,0.06,weatherlink.com 1.10,2013-02-17 02:10:00,
2013-02-16 21:20:00,30.1,18.3,29.80,North,11,5.0,5.0,61,0.00,,,0.06,Wunderground v.1.15,2013-02-17 02:20:00,
2013-02-16 21:30:00,30.1,18.3,29.80,NNE,30,3.0,4.0,61,0.00,,,0.06,Wunderground v.1.15,2013-02-17 02:30:00,
2013-02-16 21:39:00,30.1,18.0,29.79,NNE,12,5.0,9.0,60,0.00,,,0.06,weatherlink.com 1.10,2013-02-17 02:39:00,
2013-02-16 21:50:00,30.0,17.8,29.80,NNE,24,4.0,4.0,60,0.00,,,0.06,Wunderground v.1.15,2013-02-17 02:50:00,
2013-02-16 22:00:00,30.0,17.4,29.79,North,360,4.0,4.0,59,0.00,,,0.06,Wunderground v.1.15,2013-02-17 03:00:00,
2013-02-16 22:09:00,30.0,18.0,29.79,NNE,17,4.0,8.0,60,0.00,,,0.06,weatherlink.com 1.10,2013-02-17 03:09:00,
2013-02-16 22:20:00,29.9,17.7,29.78,NNW,344,2.0,2.0,60,0.00,,,0.06,Wunderground v.1.15,2013-02-17 03:20:00,
2013-02-16 22:30:00,29.8,17.6,29.77,NNE,30,3.0,6.0,60,0.00,,,0.06,Wunderground v.1.15,2013-02-17 03:30:00,
2013-02-16 22:40:00,29.7,17.0,29.77,NNW,331,1.0,5.0,60,0.00,,,0.06,weatherlink.com 1.10,2013-02-17 03:40:00,
2013-02-16 22:50:00,29.6,17.4,29.76,North,355,4.0,4.0,60,0.00,,,0.06,Wunderground v.1.15,2013-02-17 03:50:00,
2013-02-16 23:00:00,29.5,16.9,29.75,NNW,348,5.0,5.0,59,0.00,,,0.06,Wunderground v.1.15,2013-02-17 04:00:00,
2013-02-16 23:09:00,29.3,16.0,29.75,NNW,348,7.0,12.0,59,0.00,,,0.06,weatherlink.com 1.10,2013-02-17 04:09:00,
2013-02-16 23:20:00,29.2,16.2,29.74,North,351,5.0,7.0,58,0.00,,,0.06,Wunderground v.1.15,2013-02-17 04:20:00,
2013-02-16 23:25:00,29.2,16.0,29.73,North,5,7.0,9.0,59,0.00,,,0.06,weatherlink.com 1.10,2013-02-17 04:25:00,
2013-02-16 23:39:00,29.0,15.0,29.73,North,9,3.0,11.0,57,0.00,,,0.06,weatherlink.com 1.10,2013-02-17 04:39:00,
2013-02-16 23:50:00,28.9,16.0,29.73,NE,35,4.0,8.0,58,0.00,,,0.06,Wunderground v.1.15,2013-02-17 04:50:00,
2013-02-16 23:55:00,28.9,16.0,29.73,NNE,15,3.0,10.0,58,0.00,,,0.06,weatherlink.com 1.10,2013-02-17 04:55:00,